This demonstration page uses our WeatherBlox Daily Observations layout. Learn more.

40.92945, -100.16068

Hourly Observations for September 28, 2020

Temp ( °F °C ) Dew Point ( °F °C ) Humidity (%) Winds ( mph kmh ) Pressure ( in mb ) Visibility ( mi km ) Precip ( " mm )
12:15 am 00:15 Clear 46 7.7 32 0 59 59 WNW 7 11 30.17 1022 10 16.0934 0 0
12:35 am 00:35 Clear 46 7.5 32 0 59 59 WNW 9 15 30.17 1022 10 16.0934 0 0
1:55 am 01:55 Clear 45 7.1 32 0 61 61 WNW 15 24 30.2 1023 10 16.0934 0 0
2:15 am 02:15 Clear 45 7 32 0 61 61 WNW 12 19 30.2 1023 10 16.0934 0 0
2:35 am 02:35 Clear 45 7 32 0 61 61 WNW 13 20 30.2 1023 10 16.0934 0 0
2:55 am 02:55 Clear 45 7.2 32 0 61 61 WNW 13 20 30.2 1023 10 16.0934 0 0
3:15 am 03:15 Clear 45 7.2 32 0 61 61 WNW 14 22 30.2 1023 10 16.0934 0 0
3:35 am 03:35 Partly Cloudy 45 7 32 0 61 61 WNW 12 19 30.2 1023 10 16.0934 0 0
3:55 am 03:55 Clear 44 6.5 32 0 64 64 NW 12 19 30.2 1023 10 16.0934 0 0
4:15 am 04:15 Clear 44 6.4 32 0 64 64 NW 13 20 30.21 1023 10 16.0934 0 0
4:35 am 04:35 Clear 43 6.1 32 0 65 65 NW 12 19 30.22 1023 10 16.0934 0 0
4:55 am 04:55 Clear 42 5.7 32 0 67 67 NW 10 17 30.22 1023 10 16.0934 0 0
5:15 am 05:15 Clear 41 5.2 32 0 69 69 NW 8 13 30.23 1024 10 16.0934 0 0
5:35 am 05:35 Clear 41 4.8 32 0 71 71 NW 7 11 30.24 1024 10 16.0934 0 0
5:55 am 05:55 Clear 41 4.9 32 0.1 71 71 WNW 10 17 30.24 1024 10 16.0934 0 0
6:15 am 06:15 Clear 41 5.2 32 0 69 69 WNW 12 19 30.25 1024 10 16.0934 0 0
6:35 am 06:35 Clear 42 5.8 32 0 67 67 WNW 13 20 30.24 1024 10 16.0934 0 0
6:55 am 06:55 Clear 42 5.7 32 0 67 67 WNW 14 22 30.25 1024 10 16.0934 0 0
7:15 am 07:15 Partly Cloudy 42 5.5 32 0 68 68 WNW 13 20 30.26 1025 10 16.0934 0 0
7:35 am 07:35 Sunny 42 5.5 32 0 68 68 WNW 10 17 30.26 1025 10 16.0934 0 0
7:55 am 07:55 Sunny 42 5.3 32 0 69 69 WNW 10 17 30.28 1025 10 16.0934 0 0
8:15 am 08:15 Sunny 42 5.6 32 0.2 69 69 WNW 12 19 30.28 1025 10 16.0934 0 0
8:35 am 08:35 Sunny 44 6.5 33 0.4 65 65 WNW 10 17 30.27 1025 10 16.0934 0 0
8:55 am 08:55 Sunny 46 7.6 33 0.5 61 61 NW 10 17 30.26 1025 10 16.0934 0 0
9:15 am 09:15 Sunny 48 9.1 33 0.7 56 56 NW 15 24 30.25 1024 10 16.0934 0 0
9:35 am 09:35 Sunny 52 11 33 0.6 49 49 NW 16 26 30.24 1024 10 16.0934 0 0
9:55 am 09:55 Sunny 55 12.5 32 0.1 43 43 NW 16 26 30.23 1024 10 16.0934 0 0
10:15 am 10:15 Sunny 56 13.3 32 0 40 40 NW 18 30 30.23 1024 10 16.0934 0 0
10:35 am 10:35 Sunny 57 14 32 0 39 39 NW 20 31 30.22 1024 10 16.0934 0 0
10:55 am 10:55 Sunny 59 14.9 32 0 36 36 NW 18 30 30.21 1023 10 16.0934 0 0
11:15 am 11:15 Sunny 60 15.6 31 -0.3 34 34 NNW 21 33 30.2 1023 10 16.0934 0 0
11:35 am 11:35 Partly Cloudy 61 15.9 32 -0.2 34 34 NNW 24 39 30.19 1022 10 16.0934 0 0
11:55 am 11:55 Hazy 62 16.5 31 -0.8 31 31 NNW 28 44 30.18 1022 5 8.0467 0 0
12:15 pm 12:15 Sunny 62 16.7 31 -0.7 31 31 NW 24 39 30.18 1022 10 16.0934 0 0
12:35 pm 12:35 Partly Cloudy 63 17 31 -0.6 30 30 NNW 23 37 30.18 1022 10 16.0934 0 0
12:55 pm 12:55 Partly Cloudy 64 17.5 30 -0.9 29 29 NW 29 46 30.16 1021 10 16.0934 0 0
1:15 pm 13:15 Sunny 64 17.5 30 -1.3 28 28 NW 25 41 30.15 1021 7 11.26538 0 0
1:35 pm 13:35 Sunny 64 17.8 30 -1 28 28 NNW 24 39 30.14 1021 10 16.0934 0 0
1:55 pm 13:55 Partly Cloudy 64 17.8 31 -0.6 29 29 NNW 23 37 30.14 1021 10 16.0934 0 0
2:15 pm 14:15 Partly Cloudy 65 18.1 31 -0.5 29 29 NNW 28 44 30.13 1020 10 16.0934 0 0
2:35 pm 14:35 Partly Cloudy 65 18.2 30 -1 27 27 NNW 21 33 30.12 1020 10 16.0934 0 0
2:55 pm 14:55 Sunny 65 18.1 30 -1.3 27 27 NW 25 41 30.12 1020 10 16.0934 0 0
3:15 pm 15:15 Sunny 65 18.5 29 -1.5 26 26 NW 20 31 30.1 1019 10 16.0934 0 0
3:35 pm 15:35 Sunny 65 18.6 29 -1.4 26 26 N 24 39 30.09 1019 10 16.0934 0 0
3:55 pm 15:55 Sunny 66 18.7 29 -1.7 25 25 NW 22 35 30.08 1019 10 16.0934 0 0
4:15 pm 16:15 Partly Cloudy 65 18.4 28 -2 25 25 NNW 21 33 30.09 1019 10 16.0934 0 0
4:35 pm 16:35 Sunny 65 18.6 28 -2 25 25 NNW 23 37 30.08 1019 10 16.0934 0 0
4:55 pm 16:55 Sunny 65 18.6 28 -2.2 24 24 N 22 35 30.07 1018 10 16.0934 0 0
5:15 pm 17:15 Sunny 66 18.7 27 -2.7 23 23 NNW 17 28 30.06 1018 10 16.0934 0 0
5:35 pm 17:35 Sunny 65 18.5 28 -2 25 25 NNW 21 33 30.07 1018 10 16.0934 0 0
5:55 pm 17:55 Sunny 65 18.4 28 -2.2 25 25 NNW 18 30 30.08 1018 10 16.0934 0 0
6:15 pm 18:15 Sunny 64 18 28 -2.3 25 25 NNW 16 26 30.08 1019 10 16.0934 0 0
6:35 pm 18:35 Sunny 64 17.5 27 -2.6 25 25 NNW 20 31 30.08 1019 10 16.0934 0 0
6:50 pm 18:50 Sunny 63 17 29 -1.7 28 28 NNW 12 19 30.09 1019 10 16.0934 0 0
7:15 pm 19:15 Sunny 61 16 29 -1.7 30 30 NNW 10 17 30.1 1019 10 16.0934 0 0
7:35 pm 19:35 Clear 57 14.1 30 -1.1 35 35 NNW 7 11 30.12 1020 10 16.0934 0 0
7:55 pm 19:55 Clear 53 11.6 31 -0.6 43 43 NNW 6 9 30.15 1021 10 16.0934 0 0
8:15 pm 20:15 Clear 49 9.4 32 0 52 52 NNW 7 11 30.17 1022 10 16.0934 0 0
8:35 pm 20:35 Clear 47 8.2 32 -0.1 56 56 NW 6 9 30.18 1022 10 16.0934 0 0
8:55 pm 20:55 Clear 46 8 32 -0.1 57 57 NW 7 11 30.19 1022 10 16.0934 0 0
9:15 pm 21:15 Clear 44 6.4 31 -0.5 62 62 WNW 6 9 30.21 1023 10 16.0934 0 0
9:35 pm 21:35 Clear 43 6 31 -0.5 63 63 NW 7 11 30.21 1023 10 16.0934 0 0
9:55 pm 21:55 Clear 41 4.9 32 -0.2 70 70 W 6 9 30.22 1023 10 16.0934 0 0
10:15 pm 22:15 Clear 40 4.7 32 -0.1 71 71 W 7 11 30.23 1024 10 16.0934 0 0
10:35 pm 22:35 Clear 41 5.2 32 0 69 69 WNW 7 11 30.22 1023 10 16.0934 0 0
10:55 pm 22:55 Clear 39 4.1 31 -0.5 72 72 WNW 6 9 30.23 1024 10 16.0934 0 0
11:15 pm 23:15 Clear 40 4.5 32 -0.1 72 72 W 6 9 30.22 1023 10 16.0934 0 0
11:35 pm 23:35 Clear 40 4.3 32 -0.2 73 73 WNW 7 11 30.23 1024 10 16.0934 0 0
11:55 pm 23:55 Clear 38 3.5 31 -0.6 75 75 WNW 5 7 30.24 1024 10 16.0934 0 0

Powered by AerisWeather